Akron, OH

4:47 AM EST on February 10, 2016 (GMT -0500)
Akron Fulton International

Weather History for KAKR - August, 2013

Change the Weather History Date:

Saturday, August 24, 2013

  Actual Average (KCAK) Record (KCAK)
Temperature  
Mean Temperature 67 °F 70 °F  
Max Temperature 80 °F 80 °F 94 °F (1954)
Min Temperature 54 °F 60 °F 43 °F (1890)
Degree Days  
Heating Degree Days 0 1  
Month to date heating degree days 3  
Since 1 June heating degree days 58  
Since 1 July heating degree days 9  
Cooling Degree Days 2 5  
Month to date cooling degree days 151  
Year to date cooling degree days 550  
Since 1 June cooling degree days 508  
Growing Degree Days 17 (Base 50)    
Moisture  
Dew Point 52 °F    
Average Humidity 61    
Maximum Humidity 93    
Minimum Humidity 31    
Precipitation  
Precipitation 0.00 in 0.11 in 1.17 in (1998)
Month to date precipitation 2.77  
Year to date precipitation 26.41  
Snow  
Snow 0.00 in 0.00 in - ()
Month to date snowfall 0.0  
Since 1 June snowfall 0.0  
Since 1 July snowfall 0.0  
Snow Depth -    
Sea Level Pressure  
Sea Level Pressure 30.27 in    
Wind  
Wind Speed 3 mph (ENE)    
Max Wind Speed 8 mph    
Max Gust Speed -    
Visibility 10 miles    
Events      
T = Trace of Precipitation, MM = Missing Value Source: NWS Daily Summary

Daily Weather History Graph

Daily Weather History Graph

Search for Another Location

Airport or City:

Trip Planner

Search our weather history database for the weather conditions in past years. The results will help you decide how hot, cold, wet, or windy it might be!

Date:

Astronomy

Aug. 24, 2013 Rise Set
Actual Time 6:44 AM EDT 8:10 PM EDT
Civil Twilight 6:16 AM EDT 8:39 PM EDT
Nautical Twilight 5:41 AM EDT 9:13 PM EDT
Astronomical Twilight 5:04 AM EDT 9:50 PM EDT
Moon 10:01 PM EDT (8/24) 10:45 AM EDT (8/24)
Length of Visible Light 14h 23m
Length of Day
13h 25m
Waning Gibbous, 84% of the Moon is Illuminated
Aug 24
Waning Gibbous
Aug 28
Last Quarter
Sep 5
New
Sep 12
First Quarter
Sep 19
Full

Hourly Weather History & Observations

Time (EDT) Temp. Dew Point Humidity Pressure Visibility Wind Dir Wind Speed Gust Speed Precip Events Conditions
12:54 AM 60.1 °F 52.0 °F 75% 30.19 in 10.0 mi NE 4.6 mph - N/A   Clear
1:54 AM 57.0 °F 52.0 °F 83% 30.20 in 10.0 mi ENE 4.6 mph - N/A   Clear
2:54 AM 57.0 °F 53.1 °F 87% 30.21 in 10.0 mi Calm Calm - N/A   Clear
3:54 AM 57.0 °F 53.1 °F 87% 30.22 in 10.0 mi Calm Calm - N/A   Clear
4:54 AM 57.0 °F 53.1 °F 87% 30.22 in 10.0 mi Calm Calm - N/A   Clear
5:54 AM 54.0 °F 52.0 °F 93% 30.24 in 10.0 mi Calm Calm - N/A   Clear
6:54 AM 54.0 °F 51.1 °F 90% 30.27 in 10.0 mi Calm Calm - N/A   Clear
7:54 AM 57.0 °F 54.0 °F 89% 30.30 in 10.0 mi Calm Calm - N/A   Clear
8:54 AM 64.0 °F 55.0 °F 73% 30.30 in 10.0 mi Calm Calm - N/A   Clear
9:54 AM 70.0 °F 57.0 °F 63% 30.31 in 10.0 mi Calm Calm - N/A   Clear
10:54 AM 73.0 °F 53.1 °F 49% 30.32 in 10.0 mi East 8.1 mph - N/A   Clear
11:54 AM 73.9 °F 51.1 °F 45% 30.32 in 10.0 mi East 6.9 mph - N/A   Clear
12:54 PM 77.0 °F 50.0 °F 39% 30.30 in 10.0 mi NNE 4.6 mph - N/A   Clear
1:54 PM 78.1 °F 48.0 °F 35% 30.30 in 10.0 mi Variable 3.5 mph - N/A   Clear
2:54 PM 79.0 °F 48.9 °F 35% 30.28 in 10.0 mi Variable 3.5 mph - N/A   Clear
3:54 PM 80.1 °F 46.9 °F 31% 30.27 in 10.0 mi NE 6.9 mph - N/A   Clear
4:54 PM 80.1 °F 48.0 °F 32% 30.27 in 10.0 mi Variable 3.5 mph - N/A   Clear
5:54 PM 79.0 °F 46.9 °F 32% 30.27 in 10.0 mi Calm Calm - N/A   Clear
6:54 PM 78.1 °F 46.9 °F 33% 30.27 in 10.0 mi Calm Calm - N/A   Clear
7:54 PM 75.0 °F 50.0 °F 41% 30.28 in 10.0 mi East 4.6 mph - N/A   Clear
8:54 PM 72.0 °F 51.1 °F 48% 30.29 in 9.0 mi East 4.6 mph - N/A   Clear
9:54 PM 63.0 °F 54.0 °F 72% 30.30 in 10.0 mi Calm Calm - N/A   Clear
10:54 PM 66.0 °F 55.0 °F 68% 30.30 in 10.0 mi East 3.5 mph - N/A   Clear
11:54 PM 63.0 °F 57.0 °F 81% 30.30 in 10.0 mi Calm Calm - N/A   Clear